Date String (YYYY-MM-DD hh:mm:ss) UTC,Instrument flags,absolute air pressure of the measurement (hPa),sample flow rate (lpm),inlet stack bypass flow (lpm),air temperature of the measurement (°C),ambient temperature measured by the external sensor (°C),aerosol sample conditioner tube jacket temperature (°C),OPC LED temperature (°C),internal box temperature (°C),relative humidity of the measurement (%),span deviation,mass concentration of particles derived from Lorenz-Mie calculation of OPC scattering (μg/m³),mass concentration of particles derived from Lorenz-Mie calculation of OPC scattering (μg/m³),mass concentration of particles derived from Lorenz-Mie calculation of OPC scattering (μg/m³)
DateTimeUTC,F1_M11,P_M11,Q1_M11,Q2_M11,T1_M11,T2_M11,T3_M11,T4_M11,T5_M11,U1_M11,ZSPAN_M11,X0_M11,X2_M11,X1_M11
2024-02-16 20:00:00,SystemResetWarning,0828.8,5.00,000.00,018.6,018.4,000.0,027.0,020.2,19.0,0000.8,0012.23,0007.32,0007.04
2024-02-16 20:01:00,SystemResetWarning,0828.8,5.00,000.00,018.5,018.3,000.0,027.0,020.1,19.1,0001.0,0011.92,0007.34,0007.08
2024-02-16 20:02:00,SystemResetWarning,0828.9,4.99,000.00,018.5,018.1,000.0,027.0,020.0,19.1,0001.0,0011.95,0007.37,0007.11
2024-02-16 20:03:00,SystemResetWarning,0828.9,5.00,000.00,018.4,018.0,000.0,027.0,020.0,19.1,0000.9,0011.91,0007.34,0007.11
2024-02-16 20:04:00,SystemResetWarning,0829.0,5.01,000.00,018.4,017.9,000.0,027.0,020.0,19.1,0000.9,0011.94,0007.36,0007.13
2024-02-16 20:05:00,SystemResetWarning,0829.0,5.01,000.00,018.4,017.8,000.0,027.0,020.0,19.1,0000.8,0011.49,0007.37,0007.14
2024-02-16 20:06:00,SystemResetWarning,0829.0,5.00,000.00,018.4,017.8,000.0,027.0,020.0,19.1,0000.9,0010.59,0007.39,0007.15
2024-02-16 20:07:00,SystemResetWarning,0829.0,5.00,000.00,018.4,017.7,000.0,027.0,020.0,19.1,0000.9,0010.44,0007.40,0007.16
2024-02-16 20:08:00,SystemResetWarning,0829.0,4.99,000.00,018.3,017.7,000.0,027.1,020.0,19.2,0000.8,0010.55,0007.40,0007.16
2024-02-16 20:09:00,SystemResetWarning,0829.0,4.99,000.00,018.3,017.6,000.0,027.1,020.0,19.2,0000.7,0010.78,0007.40,0007.16
2024-02-16 20:10:00,SystemResetWarning,0828.9,5.00,000.00,018.3,017.6,000.0,027.0,020.0,19.1,0000.8,0010.73,0007.37,0007.15
2024-02-16 20:11:00,SystemResetWarning,0828.9,5.01,000.00,018.3,017.6,000.0,027.0,020.0,19.2,0000.9,0010.76,0007.37,0007.14
2024-02-16 20:12:00,SystemResetWarning,0828.9,5.01,000.00,018.3,017.6,000.0,027.0,020.0,19.2,0000.9,0010.72,0007.35,0007.13
2024-02-16 20:13:00,SystemResetWarning,0829.0,5.00,000.00,018.3,017.6,000.0,027.0,020.0,19.3,0000.9,0011.06,0007.33,0007.11
2024-02-16 20:14:00,SystemResetWarning,0829.0,5.00,000.00,018.3,017.7,000.0,027.1,020.1,19.3,0000.9,0011.13,0007.32,0007.08
2024-02-16 20:15:00,SystemResetWarning,0829.0,5.00,000.00,018.5,018.4,000.0,027.1,020.5,19.2,0001.4,0011.18,0007.32,0007.07
2024-02-16 20:16:00,SystemResetWarning,0829.1,5.00,000.00,018.7,019.2,000.0,027.2,021.0,18.9,0001.4,0011.50,0007.34,0007.05
2024-02-16 20:17:00,SystemResetWarning,0829.0,5.00,000.00,018.8,019.1,000.0,027.1,020.8,18.7,0001.5,0011.74,0007.32,0007.04
2024-02-16 20:18:00,SystemResetWarning,0829.0,5.00,000.00,018.8,018.9,000.0,027.1,020.6,18.8,0001.6,0011.71,0007.31,0007.04
2024-02-16 20:19:00,SystemResetWarning,0828.9,5.00,000.00,018.7,018.7,000.0,027.0,020.4,18.8,0001.2,0011.68,0007.30,0007.04
2024-02-16 20:20:00,SystemResetWarning,0829.0,5.00,000.00,018.7,018.6,000.0,027.0,020.3,18.9,0001.2,0011.25,0007.28,0007.04
2024-02-16 20:21:00,SystemResetWarning,0829.0,5.00,000.00,018.6,018.4,000.0,027.0,020.2,19.0,0001.1,0011.27,0007.29,0007.04
2024-02-16 20:22:00,SystemResetWarning,0829.0,5.00,000.00,018.6,018.3,000.0,027.0,020.1,19.0,0001.3,0011.30,0007.31,0007.05
2024-02-16 20:23:00,SystemResetWarning,0829.0,4.99,000.00,018.5,018.2,000.0,027.0,020.1,18.9,0001.8,0011.39,0007.37,0007.09
2024-02-16 20:24:00,SystemResetWarning,0828.9,5.00,000.00,018.5,018.1,000.0,027.0,020.1,18.9,0001.7,0011.25,0007.43,0007.12
2024-02-16 20:25:00,SystemResetWarning,0828.9,5.01,000.00,018.5,018.0,000.0,027.0,020.0,18.9,0001.7,0011.15,0007.44,0007.13
2024-02-16 20:26:00,SystemResetWarning,0828.9,5.01,000.00,018.4,018.0,000.0,026.9,020.0,19.0,0001.7,0011.12,0007.42,0007.11
2024-02-16 20:27:00,SystemResetWarning,0829.1,5.01,000.00,018.4,017.9,000.0,027.0,020.0,19.0,0001.7,0010.96,0007.41,0007.11
2024-02-16 20:28:00,SystemResetWarning,0829.1,5.00,000.00,018.4,017.9,000.0,027.0,020.0,19.0,0001.7,0010.63,0007.42,0007.12
2024-02-16 20:29:00,SystemResetWarning,0829.1,5.00,000.00,018.4,017.8,000.0,027.0,020.0,18.9,0001.5,0010.66,0007.43,0007.12
2024-02-16 20:30:00,SystemResetWarning,0829.1,4.99,000.00,018.3,017.7,000.0,027.0,020.0,19.0,0001.7,0010.67,0007.44,0007.13
2024-02-16 20:31:00,SystemResetWarning,0829.1,4.99,000.00,018.3,017.7,000.0,027.0,020.0,19.0,0001.8,0010.69,0007.45,0007.15
2024-02-16 20:32:00,SystemResetWarning,0829.1,4.99,000.00,018.3,017.7,000.0,027.0,020.0,19.0,0001.7,0010.68,0007.45,0007.13
2024-02-16 20:33:00,SystemResetWarning,0829.2,5.01,000.00,018.3,017.7,000.0,027.0,020.0,19.1,0001.4,0010.72,0007.46,0007.14
2024-02-16 20:34:00,SystemResetWarning,0829.2,5.00,000.00,018.3,017.6,000.0,027.0,020.0,19.1,0001.2,0010.68,0007.41,0007.10
2024-02-16 20:35:00,SystemResetWarning,0829.2,4.99,000.00,018.3,017.6,000.0,027.0,020.0,19.1,0001.3,0010.56,0007.35,0007.06
2024-02-16 20:36:00,SystemResetWarning,0829.2,5.01,000.00,018.3,017.8,000.0,027.0,020.1,19.1,0001.3,0010.51,0007.34,0007.06
2024-02-16 20:37:00,SystemResetWarning,0829.2,4.99,000.00,018.5,018.5,000.0,027.1,020.6,19.0,0001.0,0010.47,0007.33,0007.06
2024-02-16 20:38:00,SystemResetWarning,0829.3,5.00,000.00,018.7,019.2,000.0,027.2,021.0,18.8,0000.8,0010.44,0007.31,0007.05
2024-02-16 20:39:00,SystemResetWarning,0829.2,4.99,000.00,018.8,019.0,000.0,027.1,020.8,18.7,0000.7,0010.49,0007.31,0007.04
2024-02-16 20:40:00,SystemResetWarning,0829.2,5.00,000.00,018.7,018.9,000.0,027.1,020.6,18.7,0000.7,0010.55,0007.35,0007.04
2024-02-16 20:41:00,SystemResetWarning,0829.2,5.01,000.00,018.7,018.7,000.0,027.0,020.4,18.8,0000.6,0010.54,0007.33,0007.02
2024-02-16 20:42:00,SystemResetWarning,0829.3,5.00,000.00,018.7,018.5,000.0,027.0,020.3,18.9,0000.8,0010.58,0007.32,0007.00
2024-02-16 20:43:00,SystemResetWarning,0829.3,5.00,000.00,018.6,018.4,000.0,027.0,020.2,18.9,0000.7,0010.61,0007.32,0007.00
2024-02-16 20:44:00,SystemResetWarning,0829.4,5.00,000.00,018.6,018.3,000.0,027.0,020.1,19.0,0000.8,0010.54,0007.27,0006.97
2024-02-16 20:45:00,SystemResetWarning,0829.4,4.99,000.00,018.5,018.2,000.0,027.0,020.1,19.0,0000.7,0010.53,0007.26,0006.95
2024-02-16 20:46:00,SystemResetWarning,0829.4,5.00,000.00,018.5,018.1,000.0,027.0,020.1,19.1,0000.8,0010.55,0007.25,0006.95
2024-02-16 20:47:00,SystemResetWarning,0829.4,5.00,000.00,018.5,018.0,000.0,027.0,020.0,19.2,0000.8,0010.54,0007.25,0006.95
2024-02-16 20:48:00,SystemResetWarning,0829.4,5.00,000.00,018.4,018.0,000.0,026.9,020.0,19.2,0000.9,0010.63,0007.26,0006.96
2024-02-16 20:49:00,SystemResetWarning,0829.4,5.01,000.00,018.4,017.9,000.0,027.0,020.0,19.2,0001.1,0010.69,0007.26,0006.96
2024-02-16 20:50:00,SystemResetWarning,0829.3,5.00,000.00,018.4,017.9,000.0,027.0,020.0,19.2,0001.0,0010.67,0007.26,0006.97
2024-02-16 20:51:00,SystemResetWarning,0829.4,5.00,000.00,018.4,017.8,000.0,027.0,020.0,19.3,0001.2,0010.65,0007.22,0006.96
2024-02-16 20:52:00,SystemResetWarning,0829.4,5.00,000.00,018.3,017.7,000.0,027.0,020.0,19.3,0001.2,0010.75,0007.27,0006.98
2024-02-16 20:53:00,SystemResetWarning,0829.5,5.00,000.00,018.3,017.7,000.0,027.0,020.0,19.3,0001.1,0011.51,0007.28,0006.99
2024-02-16 20:54:00,SystemResetWarning,0829.4,5.00,000.00,018.3,017.7,000.0,027.0,020.0,19.3,0001.4,0011.97,0007.30,0007.01
2024-02-16 20:55:00,SystemResetWarning,0829.5,5.00,000.00,018.3,017.6,000.0,027.0,020.0,19.3,0001.6,0012.13,0007.32,0007.02
2024-02-16 20:56:00,SystemResetWarning,0829.4,5.00,000.00,018.3,017.6,000.0,027.0,020.0,19.3,0001.6,0012.45,0007.34,0007.04
2024-02-16 20:57:00,SystemResetWarning,0829.4,5.00,000.00,018.3,017.6,000.0,027.0,020.0,19.3,0001.5,0012.53,0007.36,0007.06
2024-02-16 20:58:00,SystemResetWarning,0829.5,5.01,000.00,018.3,017.6,000.0,027.0,020.0,19.3,0001.1,0012.58,0007.37,0007.07
2024-02-16 20:59:00,SystemResetWarning,0829.5,5.00,000.00,018.3,017.6,000.0,027.0,020.0,19.2,0001.1,0012.51,0007.36,0007.05
